• In India
  • List of Countries
  • For 7 days
  • Water Temperature
  • Satellite Maps
  • Weather Map
  • Weather Widgets
  • user-avatar
    Login

    Hourly Weather Popivka

    Today, 21 August, Tuesday

    Time Temperature Precipitation Wind Pressure Humidity
    00:00 +19°C° 0 mm 2 mps 750 mmHg 47%
    01:00 +19°C° 0 mm 2 mps 749 mmHg 48%
    02:00 +18°C° 0 mm 2 mps 749 mmHg 48%
    03:00 +18°C° 0 mm 2 mps 749 mmHg 49%
    04:00 +18°C° 0 mm 2 mps 749 mmHg 49%
    05:00 +17°C° 0 mm 2 mps 749 mmHg 50%
    06:00 +19°C° 0 mm 3 mps 749 mmHg 49%
    07:00 +21°C° 0 mm 3 mps 749 mmHg 47%
    08:00 +24°C° 0 mm 3 mps 749 mmHg 46%
    09:00 +26°C° 0 mm 4 mps 749 mmHg 42%
    10:00 +27°C° 0 mm 4 mps 749 mmHg 39%
    11:00 +29°C° 0 mm 5 mps 749 mmHg 36%
    12:00 +30°C° 0 mm 5 mps 748 mmHg 36%
    13:00 +30°C° 0 mm 5 mps 748 mmHg 36%
    14:00 +32°C° 0 mm 5 mps 747 mmHg 36%
    15:00 +30°C° 0 mm 4 mps 747 mmHg 40%
    16:00 +30°C° 0 mm 4 mps 747 mmHg 44%
    17:00 +29°C° 0 mm 3 mps 746 mmHg 48%
    18:00 +27°C° 0.2 mm 3 mps 747 mmHg 54%
    19:00 +25°C° 0.2 mm 3 mps 747 mmHg 60%
    20:00 +24°C° 0.2 mm 3 mps 747 mmHg 66%
    21:00 +22°C° 0.3 mm 3 mps 747 mmHg 73%
    22:00 +21°C° 0.3 mm 3 mps 747 mmHg 81%
    23:00 +20°C° 0.3 mm 3 mps 747 mmHg 88%

    Tomorrow, 22 August, Wednesday

    Time Temperature Precipitation Wind Pressure Humidity
    00:00 +19°C° 0 mm 3 mps 748 mmHg 90%
    01:00 +18°C° 0 mm 3 mps 748 mmHg 92%
    02:00 +18°C° 0 mm 3 mps 748 mmHg 94%
    03:00 +17°C° 0 mm 3 mps 748 mmHg 94%
    04:00 +16°C° 0 mm 3 mps 749 mmHg 94%
    05:00 +14°C° 0 mm 3 mps 749 mmHg 94%
    06:00 +17°C° 0 mm 3 mps 749 mmHg 87%
    07:00 +18°C° 0 mm 3 mps 750 mmHg 80%
    08:00 +19°C° 0 mm 3 mps 750 mmHg 72%
    09:00 +21°C° 0 mm 4 mps 751 mmHg 64%
    10:00 +22°C° 0 mm 4 mps 751 mmHg 56%
    11:00 +23°C° 0 mm 4 mps 751 mmHg 47%
    12:00 +25°C° 0 mm 4 mps 751 mmHg 46%
    13:00 +25°C° 0 mm 5 mps 751 mmHg 45%
    14:00 +25°C° 0 mm 5 mps 751 mmHg 43%
    15:00 +23°C° 0 mm 4 mps 752 mmHg 45%
    16:00 +23°C° 0 mm 4 mps 752 mmHg 47%
    17:00 +22°C° 0 mm 4 mps 752 mmHg 49%
    18:00 +20°C° 0 mm 3 mps 752 mmHg 53%
    19:00 +18°C° 0 mm 3 mps 753 mmHg 58%
    20:00 +17°C° 0 mm 3 mps 753 mmHg 62%
    21:00 +16°C° 0 mm 3 mps 753 mmHg 64%
    22:00 +15°C° 0 mm 2 mps 754 mmHg 65%
    23:00 +15°C° 0 mm 2 mps 754 mmHg 67%

    Day after tomorrow, 23 August, Thursday

    Time Temperature Precipitation Wind Pressure Humidity
    00:00 +14°C° 0 mm 2 mps 754 mmHg 68%
    01:00 +13°C° 0 mm 2 mps 754 mmHg 69%
    02:00 +13°C° 0 mm 2 mps 754 mmHg 70%
    03:00 +13°C° 0 mm 2 mps 754 mmHg 71%
    04:00 +12°C° 0 mm 2 mps 755 mmHg 72%
    05:00 +12°C° 0 mm 2 mps 755 mmHg 74%
    06:00 +14°C° 0 mm 2 mps 755 mmHg 68%
    07:00 +16°C° 0 mm 2 mps 755 mmHg 62%
    08:00 +18°C° 0 mm 2 mps 755 mmHg 56%
    09:00 +19°C° 0 mm 2 mps 755 mmHg 51%
    10:00 +20°C° 0 mm 2 mps 755 mmHg 46%
    11:00 +23°C° 0 mm 2 mps 755 mmHg 41%
    12:00 +23°C° 0 mm 2 mps 755 mmHg 40%
    13:00 +24°C° 0 mm 2 mps 754 mmHg 38%
    14:00 +24°C° 0 mm 2 mps 754 mmHg 37%
    15:00 +24°C° 0 mm 2 mps 754 mmHg 40%
    16:00 +24°C° 0 mm 2 mps 754 mmHg 42%
    17:00 +23°C° 0 mm 2 mps 754 mmHg 45%
    18:00 +20°C° 0 mm 2 mps 754 mmHg 49%
    19:00 +19°C° 0 mm 2 mps 754 mmHg 53%
    20:00 +17°C° 0 mm 2 mps 754 mmHg 57%
    21:00 +16°C° 0 mm 2 mps 754 mmHg 58%
    22:00 +16°C° 0 mm 2 mps 754 mmHg 60%
    23:00 +15°C° 0 mm 2 mps 754 mmHg 61%

    24 August, Friday

    Time Temperature Precipitation Wind Pressure Humidity
    00:00 +15°C° 0 mm 2 mps 754 mmHg 62%
    01:00 +14°C° 0 mm 2 mps 754 mmHg 64%
    02:00 +14°C° 0 mm 2 mps 754 mmHg 65%
    03:00 +13°C° 0 mm 2 mps 754 mmHg 66%
    04:00 +13°C° 0 mm 2 mps 754 mmHg 67%
    05:00 +13°C° 0 mm 2 mps 754 mmHg 68%
    06:00 +14°C° 0 mm 3 mps 754 mmHg 63%
    07:00 +17°C° 0 mm 3 mps 754 mmHg 58%
    08:00 +19°C° 0 mm 3 mps 754 mmHg 53%
    09:00 +21°C° 0 mm 3 mps 753 mmHg 48%
    10:00 +24°C° 0 mm 3 mps 753 mmHg 42%
    11:00 +25°C° 0 mm 3 mps 753 mmHg 37%
    12:00 +26°C° 0 mm 3 mps 753 mmHg 35%
    13:00 +26°C° 0 mm 3 mps 752 mmHg 34%
    14:00 +27°C° 0 mm 3 mps 752 mmHg 32%
    15:00 +26°C° 0 mm 3 mps 751 mmHg 35%
    16:00 +26°C° 0 mm 2 mps 751 mmHg 39%
    17:00 +26°C° 0 mm 2 mps 751 mmHg 42%
    18:00 +24°C° 0 mm 2 mps 751 mmHg 45%
    19:00 +21°C° 0 mm 3 mps 751 mmHg 48%
    20:00 +19°C° 0 mm 3 mps 751 mmHg 51%
    21:00 +18°C° 0 mm 3 mps 751 mmHg 53%
    22:00 +17°C° 0 mm 3 mps 751 mmHg 54%
    23:00 +17°C° 0 mm 3 mps 751 mmHg 55%

    25 August, Saturday

    Time Temperature Precipitation Wind Pressure Humidity
    00:00 +16°C° 0 mm 3 mps 750 mmHg 55%
    01:00 +16°C° 0 mm 3 mps 750 mmHg 56%
    02:00 +16°C° 0 mm 3 mps 750 mmHg 56%
    03:00 +14°C° 0 mm 3 mps 750 mmHg 56%
    04:00 +14°C° 0 mm 3 mps 750 mmHg 56%
    05:00 +13°C° 0 mm 3 mps 750 mmHg 56%
    06:00 +16°C° 0 mm 3 mps 750 mmHg 53%
    07:00 +18°C° 0 mm 3 mps 750 mmHg 49%
    08:00 +21°C° 0 mm 4 mps 750 mmHg 46%
    09:00 +22°C° 0 mm 4 mps 750 mmHg 42%
    10:00 +25°C° 0 mm 4 mps 750 mmHg 37%
    11:00 +27°C° 0 mm 5 mps 750 mmHg 32%
    12:00 +27°C° 0 mm 4 mps 750 mmHg 31%
    13:00 +28°C° 0 mm 4 mps 749 mmHg 30%
    14:00 +28°C° 0 mm 4 mps 749 mmHg 29%
    15:00 +28°C° 0 mm 3 mps 749 mmHg 33%
    16:00 +27°C° 0 mm 3 mps 749 mmHg 36%
    17:00 +27°C° 0 mm 2 mps 748 mmHg 40%
    18:00 +25°C° 0 mm 3 mps 749 mmHg 42%
    19:00 +22°C° 0 mm 3 mps 749 mmHg 45%
    20:00 +19°C° 0 mm 3 mps 749 mmHg 47%
    21:00 +19°C° 0 mm 3 mps 749 mmHg 47%
    22:00 +18°C° 0 mm 3 mps 749 mmHg 48%
    23:00 +18°C° 0 mm 3 mps 749 mmHg 48%

    26 August, Sunday

    Time Temperature Precipitation Wind Pressure Humidity
    00:00 +17°C° 0 mm 3 mps 749 mmHg 48%
    01:00 +17°C° 0 mm 3 mps 749 mmHg 47%
    02:00 +16°C° 0 mm 3 mps 749 mmHg 46%
    03:00 +16°C° 0 mm 3 mps 749 mmHg 46%
    04:00 +16°C° 0 mm 3 mps 749 mmHg 45%
    05:00 +16°C° 0 mm 3 mps 749 mmHg 45%
    06:00 +18°C° 0 mm 3 mps 749 mmHg 44%
    07:00 +19°C° 0 mm 3 mps 749 mmHg 43%
    08:00 +21°C° 0 mm 4 mps 749 mmHg 42%
    09:00 +23°C° 0 mm 4 mps 749 mmHg 37%
    10:00 +26°C° 0 mm 4 mps 749 mmHg 33%
    11:00 +28°C° 0 mm 4 mps 749 mmHg 29%
    12:00 +29°C° 0 mm 4 mps 748 mmHg 28%
    13:00 +29°C° 0 mm 4 mps 748 mmHg 27%
    14:00 +29°C° 0 mm 4 mps 748 mmHg 26%
    15:00 +29°C° 0 mm 4 mps 748 mmHg 31%
    16:00 +28°C° 0 mm 3 mps 748 mmHg 35%
    17:00 +27°C° 0 mm 3 mps 748 mmHg 39%
    18:00 +26°C° 0 mm 3 mps 748 mmHg 43%
    19:00 +24°C° 0 mm 3 mps 748 mmHg 47%
    20:00 +21°C° 0 mm 4 mps 748 mmHg 50%
    21:00 +21°C° 0 mm 4 mps 748 mmHg 51%
    22:00 +20°C° 0 mm 4 mps 748 mmHg 52%
    23:00 +20°C° 0 mm 4 mps 748 mmHg 52%
    Show more